Location: Buckland
(65.9785°N, 161.1281°W)
Time: 04:42:04
(UTC+00:00)

Transit 4A - Pass Details

Date: 02 December 2020
Orbit: 864 x 980 km, 66.8° (Epoch: 26 January)

Event Time Altitude Azimuth Distance (km) Brightness Sun altitude
Rises 20:27:29 0° 241° (WSW) 3,672 11.0 -1.3°
Reaches altitude 10° 20:30:02 10° 240° (WSW) 2,732 10.4 -1.2°
Maximum altitude 20:36:27 80° 155° (SSE) 1,002 8.3 -0.9°
Drops below altitude 10° 20:42:53 10° 70° (ENE) 2,732 10.5 -0.6°
Sets 20:45:26 0° 70° (ENE) 3,671 11.1 -0.5°
